Location: Camp Crooked Creek
(37.9149°N, 85.6607°W)
Time: 11:12:35
(UTC-04:00)

Daily predictions for brighter satellites

Satellite Brightness Start Highest point End
(mag) Time Altitude Azimuth Time Altitude Azimuth Time Altitude Azimuth
SL-16 R/B 3.1 20:48:45 10° SSE 20:53:21 26° ESE 20:57:59 10° NE
Nadezhda 4 Rocket 4.0 20:48:22 10° N 20:54:38 69° E 21:00:54 10° SSE
FengYun 1-2 T 4.4 20:50:37 10° SSE 20:56:16 90° WSW 21:01:58 10° NNW
GPS 2-04 Rocket1 4.3 20:54:56 10° WSW 20:57:41 21° SSW 21:00:30 10° SSE
ATLAS 5 CENTAUR R/B 4.3 20:57:33 10° N 21:00:44 14° NE 21:04:01 10° ENE
Cosmos 1634 Rocket 4.3 20:55:11 10° SSE 21:01:06 45° E 21:07:03 10° NNE
Cosmos 1707 Rocket 3.7 20:58:53 10° S 21:03:13 55° E 21:07:33 10° NNE
HJ-1C 4.1 21:00:57 10° S 21:04:22 59° W 21:07:47 10° NNW
Cosmos 1092 Rocket 4.2 20:58:06 10° N 21:04:22 58° E 21:10:35 10° SSE
Helios 1B rocket 3.2 21:01:52 10° NE 21:05:31 31° E 21:09:10 10° SSE
Lacrosse 4 Rocket 3.1 21:02:17 10° N 21:05:33 20° NE 21:08:46 10° ESE
USA 186 2.1 21:03:18 10° SE 21:05:45 34° ENE 21:08:22 10° N
ALOS 3.3 21:04:48 10° S 21:09:19 49° W 21:13:51 10° NNW
ERBS 3.6 21:07:01 10° NNW 21:10:03 28° NE 21:12:44 12° E
Gblst 52 Del rocket 4.3 21:05:06 10° NW 21:11:00 76° SW 21:16:27 10° SE
CENTAUR R/B 4.0 21:05:29 10° WSW 21:11:12 42° NW 21:17:38 10° NNE
Cosmos 1939 Rocket 4.2 21:08:25 11° ESE 21:11:31 23° ENE 21:14:43 10° NNE
Cosmos 1486 Rocket 4.1 21:08:07 10° NNW 21:13:20 65° ENE 21:18:33 10° SSE
Resurs 1-3 3.7 21:16:37 10° S 21:21:00 80° WSW 21:25:24 10° NNW
Cosmos 1869 Rocket 3.7 21:18:30 10° N 21:23:00 83° W 21:27:28 10° S
Cosmos 2227 4.2 21:17:51 10° NNW 21:23:36 73° ENE 21:29:15 10° SSE
Cosmos 1408 3.4 21:21:53 10° NNE 21:25:15 33° ENE 21:27:28 17° SE
Atlas Centaur 2 3.6 21:20:05 10° SW 21:26:05 31° SSE 21:31:32 15° ESE
SAR-Lupe-1 4.5 21:26:08 16° SE 21:28:43 43° ENE 21:32:08 10° N
Abrixas rocket 4.3 21:28:03 10° W 21:30:57 28° NNW 21:33:49 10° NE
Cosmos 2242 Rocket 3.6 21:30:20 10° S 21:34:46 59° E 21:39:12 10° NNE
Cosmos 1455 3.6 21:32:35 10° SSW 21:36:11 41° W 21:39:47 10° N
Cosmos 1627 Rocket 4.4 21:32:21 10° N 21:38:34 70° E 21:44:40 10° SSE
Helios 1A 2.9 21:36:33 11° SSE 21:40:35 83° ENE 21:44:51 10° N
CZ-4B DEB 4.4 21:39:11 15° SSE 21:42:01 83° ENE 21:45:34 10° N
Cosmos 2195 Rocket 4.4 21:35:59 10° N 21:42:07 77° E 21:48:15 10° S
Cosmos 2279 Rocket 4.1 21:36:15 10° SSE 21:42:18 56° E 21:48:23 10° NNE
Meteor 2-20 4.5 21:37:49 10° N 21:43:58 88° W 21:50:06 10° S
Cosmos 1503 Rocket 4.0 21:39:29 10° NNW 21:44:43 63° ENE 21:48:09 21° SSE
DELTA 2 R/B (1) 4.2 21:40:54 10° W 21:46:14 45° SSW 21:49:34 21° SE
CZ-3B DEB 3.2 21:46:19 10° W 21:48:12 13° WSW 21:49:39 10° SW
Cosmos 1354 Rocket 4.0 21:43:25 10° NNW 21:48:42 70° ENE 21:52:08 22° SSE
Cosmos 1869 3.9 21:45:15 10° SSW 21:49:07 58° W 21:53:01 10° N
Resurs 01 Rocket 3.5 21:48:18 10° SSW 21:52:12 30° W 21:56:08 10° NW
H-2A R/B 3.9 21:52:50 12° ENE 21:53:33 13° ENE 21:55:39 10° NE
OAO 3 Rocket 3.3 21:49:25 10° WSW 21:54:15 62° S 21:56:38 29° ESE
SJ-11-01 4.2 21:51:19 19° SSE 21:54:43 81° ENE 21:59:24 10° N
CZ-4B DEB 2.6 21:54:21 31° S 21:55:38 78° WSW 21:58:42 10° NNW
YAOGAN 6 3.0 21:56:56 38° ESE 21:57:40 44° ENE 22:01:09 10° N
Cosmos 1428 Rocket 4.4 21:54:57 10° N 22:01:02 64° E 22:04:53 23° SSE
FALCON 9 R/B 1.5 21:59:16 10° WSW 22:00:47 28° SW 22:00:47 28° SW
Meteor 1-29 3.6 21:58:36 10° N 22:02:02 57° WNW 22:05:25 10° SSW
Cosmos 2180 Rocket 4.5 21:58:07 10° S 22:04:27 71° E 22:10:46 10° NNE
SPOT 5 3.9 22:04:10 26° E 22:04:56 27° ENE 22:08:54 10° NNE
Cosmos 968 Rocket 4.5 22:01:11 10° N 22:05:41 29° ENE 22:06:50 27° E
Cosmos 2263 Rocket 2.4 22:00:48 10° NNW 22:06:15 54° ENE 22:08:25 34° ESE
Meteor 2-10 Rocket 3.9 22:05:37 24° SSE 22:08:55 52° E 22:14:31 10° NNE
Cosmos 2322 Rocket 2.5 22:03:47 10° SSW 22:09:21 66° WNW 22:14:57 10° NNE
Envisat 3.4 22:05:47 14° S 22:10:02 63° W 22:15:05 10° NNW
Cosmos 220 Rocket 4.4 22:06:43 10° NNW 22:11:06 61° WSW 22:13:27 26° S
Cosmos 1933 3.2 22:11:30 26° S 22:13:42 89° WNW 22:17:44 10° N
Sich 1 Rocket 4.0 22:12:01 10° N 22:16:17 42° E 22:16:31 41° E
Cosmos 2360 Rocket 2.2 22:15:49 19° S 22:19:42 57° ESE 22:25:15 10° NNE
H-2A R/B 4.3 22:23:59 12° NE 22:23:59 12° NE 22:25:01 10° NE
Cosmos 1825 3.6 22:21:47 10° NNW 22:25:18 36° W 22:27:15 21° SW
USA 234 3.3 22:22:52 34° SSE 22:26:00 75° SW 22:32:35 10° NW
Cosmos 2322 3.7 22:25:27 36° SSE 22:27:34 56° ESE 22:33:09 10° NNE
Cosmos 1908 Rocket 3.6 22:24:35 10° N 22:28:49 58° ENE 22:28:49 58° ENE
NOAA 11 4.2 22:28:03 47° SE 22:29:31 65° ENE 22:34:58 10° N
SEDSat Delta rocket 4.0 22:24:54 10° WSW 22:30:09 44° S 22:30:35 43° SSE
USA 245 4.5 22:30:43 45° ESE 22:31:55 53° ENE 22:37:04 10° N
SL-16 R/B 3.5 22:31:55 10° SW 22:37:12 40° WNW 22:42:32 10° N
SPOT 1/Viking Rocket 4.0 22:40:22 44° ENE 22:40:29 44° ENE 22:45:24 10° N
Cosmos 1782 Rocket 4.3 22:38:41 10° N 22:41:59 40° NE 22:41:59 40° NE
MetOp-B 4.0 22:42:09 59° SSE 22:43:12 84° ENE 22:48:35 10° NNW
ERS-1 Rocket 3.3 22:42:09 42° SSW 22:43:42 63° WSW 22:48:41 10° NNW
Lacrosse 4 Rocket 2.6 22:40:21 10° NW 22:44:21 37° WSW 22:45:08 34° SW
Okean 2 Rocket 4.3 22:41:58 10° N 22:44:59 31° NE 22:44:59 31° NE
ATLAS 5 CENTAUR R/B 2.5 22:40:27 10° NNW 22:46:29 65° NE 22:47:45 54° ESE
ERBS 4.4 22:43:51 10° WNW 22:46:04 22° WSW 22:46:04 22° WSW
Milstar 3 3.6 22:46:53 10° WSW 22:53:02 31° SSW 22:53:09 31° SSW
ARGOS 3.0 22:52:58 73° SE 22:53:24 80° ENE 22:58:47 10° N
SeaSat 1 2.4 22:57:02 76° NE 22:57:02 76° NE 23:01:54 10° NNW
Cosmos 2278 Rocket 4.2 22:56:48 10° NNE 22:59:51 15° NE 23:00:07 15° NE
Okean 1-7 3.9 23:07:56 44° N 23:07:56 44° N 23:11:00 10° N
Terra 3.2 23:10:04 29° NE 23:10:04 29° NE 23:12:58 10° N
SL-08 RB Rocket 4.1 23:09:48 60° NNW 23:09:48 60° NNW 23:13:35 10° NNW
Cosmos 1844 Rocket 3.5 23:04:24 10° N 23:09:04 37° NE 23:09:04 37° NE
USA 229 DEB 3.6 23:03:46 10° SSW 23:10:36 84° NW 23:17:34 10° NNE
USA 229 3.6 23:03:52 10° SSW 23:10:42 85° NW 23:17:39 10° NNE
Cosmos 1703 Rocket 4.5 23:14:11 46° WNW 23:14:11 46° WNW 23:18:19 10° N
Atlas Centaur 2 3.3 23:07:50 10° WSW 23:14:12 47° SSW 23:14:12 47° SSW
Cosmos 2266 Rocket 4.3 23:10:42 10° NNW 23:16:53 63° W 23:18:13 51° SW
MOS 1-B Rocket 4.1 23:22:53 61° SW 23:23:25 64° WSW 23:29:05 10° NNW
Cosmos 2219 Rocket 3.8 23:28:37 24° NE 23:28:37 24° NE 23:30:53 10° NNE
CZ-4C R/B 4.1 23:24:33 10° NNW 23:30:34 29° NE 23:32:09 26° ENE
H-2A R/B 2.6 23:33:27 53° NW 23:33:27 53° NW 23:37:21 10° NNW
Cosmos 1867 4.1 23:28:17 10° NW 23:32:45 53° WNW 23:32:45 53° WNW
SPOT 5 4.4 23:43:25 29° W 23:43:25 29° W 23:47:03 10° NW
Cosmos 1553 Rocket 4.4 23:48:00 54° NNE 23:48:00 54° NNE 23:52:48 10° N
Cosmos 2263 Rocket 4.2 23:45:58 10° WNW 23:49:40 18° W 23:50:08 18° WSW
H-2A R/B 4.0 23:01:10 10° W 23:51:20 50° SSW 23:51:33 50° SSW
COSMOS 2428 3.3 23:52:07 52° NW 23:52:07 52° NW 23:57:10 10° NNE
